Theta_e
337 326 323 324 326 330 333 331 327 323 325 329 333 332 326 330 333 336 337 339 341 340 341 340 339 340 340 339 339 338 337 338 340 342 336 336 335 329 331 329 328 318 317
331 325 322 324 326 327 328 328 324 327 328 329 338 329 329 332 335 338 337 336 336 337 338 338 339 339 339 339 339 339 337 337 338 340 343 337 335 337 330 327 324 323 320
328 323 322 324 326 326 327 325 327 333 340 339 339 331 331 334 337 336 336 335 337 337 337 337 337 338 339 339 339 338 337 339 344 343 345 346 337 334 337 332 329 328 326
327 323 323 325 326 325 324 325 329 340 340 340 335 333 334 335 336 336 336 335 335 337 337 337 336 336 337 338 339 339 338 343 345 346 345 345 342 336 334 337 334 332 331
342 332 323 325 326 324 324 328 337 340 340 332 333 334 335 335 336 336 335 335 334 335 336 336 335 335 334 333 337 337 341 342 344 345 346 345 346 337 334 335 338 336 335
344 331 324 326 325 324 326 330 341 341 339 332 333 333 334 334 334 334 334 334 333 334 334 333 333 333 332 333 338 337 339 344 344 345 344 342 343 338 336 333 336 338 337
345 326 324 326 325 325 327 330 340 342 342 333 333 333 333 333 333 334 332 331 330 329 329 328 329 329 330 332 339 341 339 342 343 344 344 342 341 339 338 336 333 336 338
342 331 324 326 326 325 326 329 331 332 333 333 333 333 333 334 333 330 329 328 327 327 328 327 326 326 329 332 340 337 338 341 344 345 345 346 341 341 340 337 337 333 333
341 332 324 325 326 325 326 329 330 331 333 334 334 333 332 330 328 328 327 329 333 334 335 333 332 330 328 335 340 338 337 344 338 339 346 346 339 340 342 340 337 332 332
342 340 332 325 325 325 326 327 329 330 331 331 331 330 328 328 328 332 331 336 337 337 337 337 336 333 338 340 338 335 342 342 342 346 348 344 338 340 342 342 341 338 333
343 340 340 339 331 334 327 327 328 329 329 330 329 328 328 343 342 343 344 334 332 335 336 337 335 335 339 344 343 340 342 343 343 342 343 346 339 335 340 341 342 342 339
339 338 340 339 339 340 341 333 327 327 327 328 332 341 331 341 344 346 337 342 342 339 341 341 340 340 344 343 343 342 341 340 339 344 344 343 340 337 337 338 340 342 342
338 338 338 341 339 340 343 341 334 340 337 343 344 344 339 341 339 338 341 342 343 340 343 342 339 343 342 335 338 337 339 339 338 338 340 338 339 339 336 333 336 340 342
336 336 338 340 338 339 338 340 340 342 340 342 341 337 335 331 338 339 341 343 343 342 340 340 339 340 338 340 340 339 338 337 336 337 337 339 339 338 336 333 332 334 340
335 336 338 340 339 342 341 339 339 339 340 340 341 339 341 342 344 345 344 341 341 341 340 340 340 340 336 340 342 343 343 342 340 341 339 341 341 340 338 336 332 333 336
334 335 336 338 337 341 340 340 340 340 339 339 339 339 331 341 344 341 343 343 343 341 339 338 339 338 339 339 340 342 341 340 342 343 345 346 344 345 341 341 341 335 337
334 334 335 337 340 340 342 344 341 340 339 340 339 335 334 334 335 339 342 342 339 336 336 336 335 334 335 336 337 339 337 337 339 341 344 345 346 346 344 344 344 343 339
336 336 337 342 344 345 344 342 342 341 340 340 337 335 336 337 338 338 337 336 335 336 336 336 334 334 335 334 334 331 325 328 333 338 341 343 342 342 343 344 343 343 342
339 339 341 341 341 343 341 340 339 339 337 335 334 333 335 336 336 336 335 336 336 335 333 334 334 334 329 324 316 317 321 329 338 338 335 331 336 338 338 339 338 338 340
339 339 339 341 340 339 339 339 338 336 334 333 331 334 334 335 336 336 336 335 334 333 331 333 329 318 312 312 310 321 326 334 335 334 331 327 328 325 331 331 334 336 337
339 338 339 339 339 339 339 337 335 334 331 330 331 333 335 335 335 333 333 333 333 332 326 312 309 316 312 308 321 323 331 329 331 327 325 322 318 314 312 308 309 315 318
338 338 338 339 338 338 337 337 335 332 329 326 329 331 332 332 332 332 331 331 326 323 312 307 312 316 314 305 311 323 334 332 323 323 317 310 309 312 310 308 307 306 316
337 337 337 338 337 335 335 335 333 331 328 327 327 325 328 328 327 325 322 319 310 309 308 305 305 314 312 309 310 321 321 322 317 318 314 311 311 311 310 312 309 309 308
334 335 335 335 334 333 333 332 332 330 328 323 319 319 323 318 314 309 307 306 305 305 303 302 303 309 311 310 309 306 309 312 314 319 312 311 311 310 309 311 311 311 309
333 333 331 332 330 329 330 328 327 327 326 321 317 318 315 308 307 306 304 304 303 302 301 301 303 307 309 309 309 310 312 311 308 311 312 310 309 309 309 309 310 310 310
331 329 328 329 328 326 325 326 325 326 322 317 316 311 311 309 306 306 304 303 302 302 301 300 300 302 306 307 307 308 308 309 308 308 308 308 307 307 310 309 309 308 308
Wind_Speed
14 16 15 16 16 16 15 14 13 14 16 17 17 19 20 21 22 22 21 20 19 18 17 16 16 16 16 15 13 12 13 16 16 16 17 18 15 13 13 13 14 10 11
17 18 17 18 17 16 15 15 15 16 17 18 18 19 20 20 20 19 19 18 16 16 16 15 15 15 15 15 14 13 11 14 16 14 12 18 18 13 11 10 10 11 12
19 19 18 19 19 17 16 17 17 17 16 17 17 19 19 19 18 16 16 15 14 14 14 13 13 14 14 14 15 14 15 14 11 9 10 9 16 14 10 9 9 11 12
20 19 20 21 20 18 18 18 18 17 16 16 17 18 17 16 15 14 13 13 12 12 11 11 11 11 12 12 12 14 16 13 10 6 9 7 6 15 9 7 8 8 10
19 18 19 21 20 19 19 19 18 17 15 16 16 15 15 13 12 10 10 10 9 9 9 9 9 10 10 10 10 12 13 13 11 13 8 9 3 12 9 7 6 8 9
20 18 20 20 20 19 19 19 17 16 14 14 14 13 12 11 9 7 7 7 7 7 7 7 7 7 8 9 10 11 8 10 9 11 10 5 3 9 9 8 7 7 6
19 19 21 20 20 19 18 18 16 14 13 13 12 10 9 7 6 5 6 6 6 6 6 7 6 6 7 7 7 8 9 12 13 10 6 5 7 9 9 8 6 5 4
17 19 21 20 20 19 18 17 15 14 13 12 11 9 7 5 4 4 4 5 6 7 7 7 7 6 6 7 7 9 10 8 2 7 3 1 9 10 10 9 7 5 4
19 17 20 19 19 18 18 17 15 12 12 11 9 7 5 4 3 4 4 5 6 7 8 7 7 6 6 7 8 9 9 8 8 12 8 1 6 8 9 9 8 7 5
19 17 17 18 18 16 15 15 14 11 10 8 7 6 5 5 5 5 4 4 6 6 7 7 8 7 7 9 12 8 6 7 5 6 9 2 6 8 8 7 8 7 6
17 18 17 16 15 12 12 13 12 10 8 7 5 4 7 4 6 5 6 6 6 6 7 6 7 7 5 5 7 10 10 8 2 4 4 5 8 10 8 6 5 5 5
18 19 18 18 14 14 11 9 11 10 7 4 3 2 7 3 4 5 8 6 8 9 5 9 10 6 10 12 9 11 12 10 12 8 3 5 11 12 8 6 5 4 4
20 20 19 19 20 17 13 5 9 4 3 4 10 11 5 6 5 4 8 8 5 6 8 8 9 7 6 6 5 7 9 7 9 14 10 13 13 14 12 9 7 6 6
21 20 19 17 22 16 13 9 8 13 7 8 5 8 6 4 2 4 2 3 8 4 2 5 5 11 14 5 5 10 9 7 9 7 15 14 12 13 15 13 10 9 8
22 20 20 19 23 17 13 15 11 13 9 11 10 10 11 8 8 9 9 10 7 11 5 6 6 13 10 3 6 11 8 10 4 6 9 15 15 15 16 13 13 12 11
20 22 18 17 19 18 20 14 18 15 15 11 13 17 16 15 16 15 5 5 9 11 9 8 8 11 8 5 6 10 12 8 4 6 12 13 15 16 14 11 11 11 12
20 20 22 16 15 14 18 18 15 15 10 13 20 18 14 17 13 11 10 13 15 10 9 11 11 10 9 9 9 13 9 5 5 9 13 12 11 14 9 10 10 10 10
22 21 19 16 19 20 18 16 12 15 14 12 13 12 13 13 13 11 9 15 11 10 13 15 13 12 14 14 14 11 4 7 8 12 11 15 14 14 11 10 11 7 8
25 25 22 16 17 21 18 17 15 16 13 13 9 12 11 12 11 12 15 16 10 11 16 16 16 15 11 13 8 2 3 4 7 7 6 7 12 15 15 16 14 8 5
22 24 24 20 20 22 19 18 18 15 14 12 17 17 12 11 10 11 15 13 15 16 18 16 12 9 9 9 4 6 8 3 1 3 2 3 4 6 6 6 5 6 8
23 23 26 27 27 25 20 18 14 13 14 17 17 14 13 12 11 12 16 13 17 16 15 9 6 1 7 2 8 9 4 10 9 6 6 6 5 6 8 5 3 4 6
27 25 26 21 25 21 18 15 14 15 13 14 15 12 11 11 11 12 16 14 13 12 10 6 6 7 4 2 6 12 11 7 6 5 7 4 5 3 7 7 7 5 5
24 26 21 24 21 19 16 23 22 25 19 14 9 10 9 11 11 11 11 9 9 11 6 6 5 7 2 3 2 8 7 9 7 3 5 11 11 9 8 7 8 6 2
22 21 19 21 20 20 17 22 24 20 11 7 8 11 9 8 7 6 7 7 7 7 5 6 7 10 8 5 3 5 5 8 8 11 7 9 7 7 13 4 7 9 9
21 18 19 17 17 22 21 13 15 13 14 15 13 7 5 4 4 3 5 7 7 5 5 6 8 12 11 8 8 7 10 7 5 4 3 9 4 4 7 7 7 5 8
23 19 17 18 13 15 16 14 12 14 14 14 10 4 4 1 3 4 5 6 7 6 6 7 7 6 10 9 13 8 9 7 7 5 3 7 6 6 6 4 5 6 6
Wind_Direction
136 134 131 130 125 125 124 116 113 111 109 110 108 104 105 104 101 97 95 92 89 88 87 83 79 76 74 72 71 73 78 75 71 66 66 59 56 66 70 76 73 77 80
139 137 138 136 129 128 125 121 120 115 107 105 108 109 110 109 104 102 97 92 91 90 86 81 73 68 67 65 64 62 81 77 69 66 74 62 51 45 62 66 71 76 80
141 139 142 135 132 129 128 127 124 114 112 112 112 114 114 113 109 101 96 93 92 89 84 77 72 69 67 63 61 65 80 91 83 70 69 58 60 34 44 60 69 73 72
133 142 144 136 132 131 133 132 127 118 118 120 121 121 120 118 113 106 99 93 89 86 81 75 68 63 59 57 57 65 97 87 74 52 67 140 57 31 33 53 70 75 72
133 146 145 139 136 136 139 134 127 122 127 131 129 128 126 121 113 105 94 88 86 84 78 68 63 58 52 48 55 78 98 85 71 64 68 133 46 7 28 50 72 61 60
144 157 150 144 139 140 141 140 132 133 132 139 139 137 132 126 118 107 96 87 78 67 55 56 52 49 48 53 63 70 89 79 53 82 93 58 17 12 28 39 51 54 57
151 155 153 149 147 148 150 148 139 138 140 147 148 147 141 132 119 101 83 71 63 55 47 38 37 35 41 47 46 52 71 71 62 64 99 48 8 21 30 36 44 55 59
156 153 155 156 156 155 157 157 153 152 154 155 155 151 142 133 114 88 71 60 44 36 29 27 26 29 34 39 35 40 49 57 86 122 107 273 13 25 36 33 31 35 43
144 161 159 163 162 162 164 167 165 162 161 161 156 150 136 111 76 58 42 41 35 32 30 32 31 36 43 40 26 24 66 70 24 83 159 103 3 14 30 33 28 30 27
150 150 155 165 165 168 173 177 175 174 173 168 161 153 132 90 45 26 356 33 28 27 35 40 39 42 54 53 36 32 61 78 29 356 140 188 18 11 14 20 27 24 25
158 159 156 159 164 158 185 185 185 185 182 179 171 155 119 63 33 332 360 359 351 0 13 18 17 36 34 358 23 20 359 2 17 222 222 257 346 344 356 1 4 10 17
162 159 167 161 162 166 190 193 195 192 184 170 140 243 150 20 204 185 318 359 37 29 19 31 26 38 348 343 326 332 348 341 344 231 276 330 337 333 324 334 338 322 324
169 166 166 178 170 165 178 219 178 204 167 140 187 217 178 199 233 279 298 304 13 354 6 342 346 321 272 266 284 309 298 313 326 354 339 337 333 324 310 309 309 299 277
172 172 173 179 163 172 183 179 175 193 188 231 262 233 188 205 173 249 305 358 335 58 331 312 284 292 278 288 331 301 286 276 278 298 339 328 312 297 297 289 280 275 267
169 167 169 178 176 183 161 183 185 190 180 214 203 250 179 198 229 192 231 234 251 254 248 257 256 278 285 304 294 268 279 269 297 319 296 289 301 298 294 291 275 267 260
170 173 178 182 185 180 163 180 190 181 202 194 195 222 209 196 217 213 221 228 228 237 238 246 252 274 283 277 282 282 269 301 310 286 279 276 281 281 272 274 279 270 264
172 168 181 173 180 176 182 182 179 193 212 204 227 228 219 214 223 214 209 221 237 250 258 258 264 268 271 259 260 261 266 288 247 242 237 247 268 271 272 274 281 283 275
170 179 175 177 181 180 190 181 173 178 180 194 232 229 218 218 227 203 217 242 260 267 273 276 277 273 274 269 259 270 253 253 243 247 240 249 260 277 283 290 294 327 314
181 180 164 179 196 182 176 167 183 188 182 195 211 239 219 221 218 223 234 253 261 261 268 273 276 272 275 273 262 71 257 176 220 252 287 251 256 272 286 297 289 297 279
183 182 173 174 197 190 187 183 198 179 187 196 209 229 233 234 232 230 254 262 264 265 267 280 270 267 264 279 249 150 193 166 237 276 263 275 74 309 283 317 314 273 269
183 187 178 188 198 202 191 176 185 187 192 212 230 236 238 242 243 236 254 262 271 272 272 268 238 288 248 222 134 143 205 197 140 130 225 301 102 341 338 345 334 337 310
185 194 193 194 208 203 195 182 190 194 194 216 240 240 241 247 252 250 259 264 261 269 264 250 184 160 297 203 205 158 156 145 171 210 278 5 84 330 13 2 359 64 112
191 192 203 198 205 184 190 192 189 198 207 236 247 246 245 250 249 247 243 246 225 245 252 220 199 158 111 18 133 182 178 141 162 240 1 24 34 3 13 359 14 15 113
192 190 195 201 206 189 201 205 209 213 236 201 200 245 246 227 237 231 227 214 213 227 214 187 177 156 148 116 62 99 79 124 125 153 100 35 43 360 355 351 50 358 7
181 183 192 198 201 195 192 193 203 183 203 183 210 221 221 200 190 191 187 190 190 205 180 167 166 166 154 150 121 95 88 48 95 89 339 354 339 18 331 355 53 0 5
171 171 181 187 189 199 187 186 185 200 178 190 221 170 111 97 173 167 179 185 172 162 160 157 154 161 161 138 112 99 99 85 60 46 9 336 343 33 348 355 346 7 322